Mankato, MN

7:24 AM CST on November 17, 2019 (GMT -0600)
Mankato Regional

Weather History for KMKT - September, 2019

Change the Weather History Date:

Thursday, September 19, 2019

  Actual Average Record
Temperature  
Mean Temperature 73 °F -  
Max Temperature 82 °F 67 °F 91 °F (1998)
Min Temperature 64 °F 48 °F 42 °F (2006)
Cooling Degree Days 8    
Growing Degree Days 23 (Base 50)    
Moisture  
Dew Point 66 °F    
Average Humidity 83    
Maximum Humidity 100    
Minimum Humidity 58    
Precipitation  
Precipitation 0.00 in - - ()
Sea Level Pressure  
Sea Level Pressure 29.99 in    
Wind  
Wind Speed 2 mph ()    
Max Wind Speed 8 mph    
Max Gust Speed -    
Visibility 10.0 miles    
Events      
Averages and records for this station are not official NWS values.
T = Trace of Precipitation, MM = Missing Value Source: Averaged Metar Reports

Daily Weather History Graph

Daily Weather History Graph

Search for Another Location

Airport or City:

Astronomy

Sep. 19, 2019 Rise Set
Actual Time 6:59 AM CDT 7:19 PM CDT
Civil Twilight 6:30 AM CDT 7:47 PM CDT
Nautical Twilight 5:55 AM CDT 8:22 PM CDT
Astronomical Twilight 5:20 AM CDT 8:57 PM CDT
Moon 10:17 PM CDT (9/19) 12:13 PM CDT (9/19)
Length of Visible Light 13h 17m
Length of Day
12h 19m
Waning Gibbous, 74% of the Moon is Illuminated
Sep 19
Waning Gibbous
Sep 21
Last Quarter
Sep 28
New
Oct 5
First Quarter
Oct 13
Full

Hourly Weather History & Observations

Time (CDT) Temp. Heat Index Dew Point Humidity Pressure Visibility Wind Dir Wind Speed Gust Speed Precip Events Conditions
12:56 AM 66.9 °F - 63.0 °F 87% 29.96 in 10.0 mi Calm Calm - N/A   Mostly Cloudy
1:56 AM 68.0 °F - 63.0 °F 84% 29.96 in 10.0 mi Calm Calm - N/A   Overcast
2:56 AM 64.9 °F - 64.9 °F 100% 29.96 in 10.0 mi SSW 4.6 mph - N/A   Overcast
3:56 AM 66.0 °F - 64.0 °F 93% 29.94 in 10.0 mi Calm Calm - N/A   Clear
4:56 AM 64.9 °F - 64.0 °F 97% 29.93 in 10.0 mi Calm Calm - N/A   Clear
5:56 AM 64.0 °F - 64.0 °F 100% 29.96 in 10.0 mi Calm Calm - N/A   Clear
6:56 AM 64.0 °F - 64.0 °F 100% 30.02 in 10.0 mi SSE 4.6 mph - N/A   Clear
7:56 AM 64.9 °F - 64.9 °F 100% 30.02 in 10.0 mi Calm Calm - N/A   Clear
8:56 AM 66.0 °F - 66.0 °F 100% 30.02 in 10.0 mi WNW 3.5 mph - N/A   Clear
9:56 AM 71.1 °F - 66.9 °F 87% 30.01 in 10.0 mi Calm Calm - N/A   Clear
10:56 AM 73.0 °F - 64.9 °F 76% 30.01 in 10.0 mi Calm Calm - N/A   Clear
11:56 AM 75.9 °F - 64.9 °F 69% 30.01 in 10.0 mi NE 3.5 mph - N/A   Clear
12:56 PM 78.1 °F - 64.9 °F 64% 30.01 in 10.0 mi NE 3.5 mph - N/A   Clear
1:56 PM 79.0 °F - 66.0 °F 64% 29.99 in 10.0 mi ESE 6.9 mph - N/A   Clear
2:56 PM 81.0 °F 83.3 °F 66.9 °F 62% 29.98 in 10.0 mi Calm Calm - N/A   Partly Cloudy
3:56 PM 81.0 °F 83.0 °F 66.0 °F 60% 29.97 in 10.0 mi ESE 3.5 mph - N/A   Clear
4:56 PM 82.0 °F 84.1 °F 66.0 °F 58% 29.96 in 10.0 mi Calm Calm - N/A   Clear
5:56 PM 81.0 °F 83.3 °F 66.9 °F 62% 29.97 in 10.0 mi NNE 4.6 mph - N/A   Clear
6:56 PM 79.0 °F - 70.0 °F 74% 29.97 in 9.0 mi ENE 4.6 mph - N/A   Mostly Cloudy
7:56 PM 75.0 °F - 71.1 °F 87% 29.98 in 10.0 mi ESE 3.5 mph - N/A   Mostly Cloudy
8:56 PM 71.1 °F - 69.1 °F 93% 30.00 in 10.0 mi SE 4.6 mph - N/A   Scattered Clouds
9:56 PM 70.0 °F - 68.0 °F 93% 30.01 in 10.0 mi SSE 6.9 mph - N/A   Clear
10:56 PM 68.0 °F - 66.9 °F 96% 30.01 in 10.0 mi SE 5.8 mph - N/A   Clear
11:56 PM 69.1 °F - 68.0 °F 96% 30.02 in 10.0 mi SSE 8.1 mph - N/A   Clear